Wind_Speed
7 7 8 8 9 9 9 10 10 10 11 11 11 11 12 11 12 12 12 12 13 13 13 12 12 12 12 12 13 13 13 14 14 14 15 15 16 16 16 17 17 17 17 17
8 8 8 9 10 10 10 10 10 11 11 11 11 12 12 11 12 12 12 13 13 14 14 13 13 12 13 13 13 13 13 14 14 14 15 15 16 17 17 18 18 18 18 19
9 9 9 10 10 10 10 11 11 12 11 11 11 11 12 11 12 12 12 13 13 14 14 13 14 14 14 14 14 14 14 14 14 14 15 16 16 17 18 19 19 19 20 20
10 10 10 11 11 11 11 11 11 11 11 10 10 11 12 13 13 13 13 13 14 14 14 14 14 14 15 15 15 15 15 15 15 16 17 18 18 18 19 20 20 21 21 21
10 11 11 12 11 12 11 11 11 10 11 11 11 12 13 14 14 14 15 15 14 14 14 15 15 15 15 15 16 16 16 16 16 17 17 18 19 19 20 20 20 21 21 22
10 11 12 12 12 12 11 11 11 10 11 12 12 13 15 15 15 15 15 16 15 15 16 16 16 16 15 15 16 16 16 17 17 18 18 18 19 20 20 20 20 21 22 22
11 12 12 12 12 12 11 12 12 11 12 13 13 14 15 16 15 15 16 16 16 15 16 17 17 17 16 16 16 17 17 18 18 19 19 19 20 21 21 21 21 21 22 22
12 13 13 13 13 12 13 13 13 13 13 14 15 16 16 16 16 16 16 17 17 17 17 17 18 18 18 18 18 17 18 18 19 20 20 21 22 22 22 22 22 22 23 23
13 15 15 14 14 14 14 14 14 15 15 15 15 17 18 17 17 17 17 17 17 18 18 18 19 19 19 19 19 19 19 19 20 21 21 22 23 23 23 23 23 24 24 24
13 14 16 15 15 15 15 15 15 16 16 16 15 16 19 18 18 17 18 18 19 19 19 20 19 19 20 20 20 20 21 20 21 22 22 22 23 24 24 24 24 24 24 24
14 14 15 16 16 15 16 16 17 17 17 16 17 18 20 20 19 19 19 19 20 20 20 19 20 20 20 21 21 21 22 22 23 23 24 24 24 24 25 25 25 25 25 25
14 15 15 16 17 17 17 17 17 18 18 17 19 21 21 21 20 21 21 21 21 21 21 20 20 21 21 21 22 22 23 24 24 25 25 25 26 26 26 26 26 26 26 27
15 16 16 16 17 18 18 17 18 19 19 19 19 21 21 21 20 21 21 22 22 22 22 22 22 21 22 22 23 24 24 25 25 26 26 27 27 27 27 28 28 28 28 28
16 17 17 17 17 18 19 18 19 20 21 20 21 22 23 23 22 23 22 23 24 23 24 24 23 23 23 23 24 24 25 26 26 27 27 28 28 28 29 29 29 30 29 29
18 18 18 18 18 19 20 20 21 22 22 22 22 23 23 24 24 25 25 25 25 25 24 25 24 25 25 25 25 26 26 27 27 27 28 29 29 30 30 30 30 29 29 29
20 20 20 20 20 20 20 21 22 22 23 23 23 23 23 24 24 25 25 25 25 26 26 26 26 26 27 27 27 27 28 28 28 28 29 30 30 31 31 31 30 30 30 30
20 20 21 21 22 22 21 21 22 23 23 24 24 24 24 24 25 26 26 25 26 26 26 27 27 28 28 28 28 28 29 29 29 30 31 32 32 32 32 32 32 32 32 32
21 21 21 22 21 22 21 21 22 24 25 25 25 25 25 26 26 26 27 26 26 26 26 27 28 28 29 29 30 30 30 31 31 32 32 33 33 33 33 33 33 33 33 33
22 23 22 22 22 23 22 21 22 24 25 26 25 25 26 27 27 27 27 27 27 27 27 27 28 28 29 30 31 31 31 31 32 32 32 33 33 33 34 34 34 34 34 34
23 23 24 23 23 24 24 23 22 24 26 25 25 25 25 27 27 26 27 27 27 28 28 28 28 28 29 30 31 32 32 33 33 33 32 33 33 34 34 34 34 34 34 35
23 24 24 25 25 26 25 25 25 26 26 26 26 26 26 27 27 27 27 27 28 28 28 28 28 28 29 30 31 32 33 33 33 33 33 34 35 35 34 34 34 34 35 35
25 25 25 25 26 26 26 26 27 28 29 28 28 28 28 27 27 27 27 28 29 29 29 29 29 30 30 31 31 32 33 34 34 34 34 34 35 35 35 35 35 35 35 35
26 26 26 27 28 28 27 27 27 28 29 29 29 29 29 29 28 28 29 29 29 30 31 31 31 31 32 32 32 33 33 34 35 36 36 36 36 35 35 36 36 36 36 36
27 27 28 27 27 29 29 29 29 28 29 30 31 30 29 29 29 29 29 30 30 30 30 31 32 32 33 33 33 33 34 34 35 36 36 35 35 36 36 36 36 37 36 36
28 28 28 28 29 30 30 29 30 30 31 31 31 31 31 31 31 31 31 31 31 31 32 32 33 34 34 34 34 35 35 35 35 35 35 36 36 36 36 36 36 36 36 36
28 28 29 29 29 31 32 31 31 32 32 32 32 32 32 33 33 32 32 32 32 32 32 32 33 33 33 34 34 35 35 35 35 35 35 36 37 37 37 37 36 36 36 36
Wind_Direction
242 239 242 244 248 251 253 260 266 271 278 281 279 274 273 275 273 272 272 269 269 267 266 265 266 267 270 271 269 273 277 280 283 282 285 286 290 295 298 297 294 290 289 289
246 247 251 250 251 252 254 257 263 268 272 278 279 277 275 274 277 274 271 268 267 268 266 265 265 266 268 271 272 274 280 281 284 286 287 288 291 293 295 295 294 291 289 288
250 254 253 253 252 252 253 258 263 266 269 272 277 282 281 276 280 280 274 270 268 267 266 265 266 267 267 269 272 275 280 282 284 285 287 290 292 294 294 293 292 290 288 285
247 248 251 253 255 255 257 261 264 265 265 270 277 281 281 281 282 281 278 274 272 268 266 266 268 268 269 270 274 278 280 282 284 286 287 288 291 294 295 293 291 290 290 286
250 252 252 255 258 257 260 262 266 267 268 272 278 280 281 281 282 282 280 277 274 270 267 267 267 268 269 271 274 278 281 284 286 288 289 291 293 293 294 294 292 291 291 289
252 255 256 257 258 261 262 261 263 270 272 271 276 277 277 277 281 281 279 278 275 273 271 269 268 267 268 271 274 278 281 284 286 287 290 293 294 294 294 294 293 292 293 291
261 259 257 257 257 258 258 259 263 273 276 277 275 273 274 281 282 280 280 279 278 274 272 269 268 268 269 270 272 279 281 282 285 286 288 292 295 296 295 294 294 294 294 292
263 262 261 259 258 258 255 256 258 260 262 270 275 274 276 280 283 279 278 277 278 275 273 271 270 269 269 270 273 277 280 281 285 287 288 291 295 296 294 294 295 294 294 293
264 266 264 261 259 259 259 258 257 260 260 262 266 272 275 276 278 279 279 279 278 275 274 272 270 268 268 270 271 274 279 282 286 288 290 292 293 294 293 294 295 295 294 292
264 265 266 264 260 261 262 261 258 259 261 264 264 266 271 275 277 277 279 281 280 276 274 273 270 270 270 271 272 273 276 281 285 288 290 292 292 292 292 293 294 293 293 292
267 268 266 264 261 261 260 260 260 261 261 264 263 262 269 275 276 276 278 281 281 277 275 273 271 272 273 273 274 275 276 279 283 286 289 291 292 292 291 292 292 292 291 291
265 268 265 265 264 265 264 262 261 260 260 264 264 266 269 272 275 277 277 279 281 279 277 276 274 272 275 275 275 276 277 280 283 285 289 290 291 291 291 291 292 291 291 291
264 269 267 264 262 262 263 262 261 262 261 263 266 269 271 273 274 275 276 277 280 279 277 276 275 275 276 275 276 277 280 281 282 285 288 290 290 290 291 290 289 289 289 290
267 270 269 265 263 263 268 266 263 264 263 266 269 271 272 275 276 275 274 275 276 277 277 275 274 274 275 276 277 278 280 281 282 285 287 289 290 290 290 290 290 289 289 289
268 271 271 266 261 263 267 269 266 266 267 270 271 274 277 278 277 275 276 277 278 278 278 276 274 273 273 275 276 279 281 283 284 286 288 289 288 288 289 289 289 289 290 290
268 271 271 266 265 266 264 267 268 268 269 273 275 276 277 278 277 277 277 278 278 279 279 277 274 273 273 275 277 279 280 282 284 286 288 289 288 289 290 290 289 289 289 289
271 272 271 269 269 268 266 269 268 270 272 273 275 277 278 277 278 280 280 279 279 279 279 278 277 276 275 275 277 278 279 281 283 286 287 288 287 289 290 288 287 288 288 288
270 272 272 272 271 268 273 273 272 272 273 274 276 278 280 279 279 279 280 280 280 280 280 280 278 277 276 276 276 278 280 282 283 284 286 288 288 288 288 288 288 288 287 287
271 271 272 272 271 271 273 277 275 276 276 277 278 278 279 280 279 278 280 281 280 280 281 280 280 279 278 277 277 278 280 282 283 283 285 287 288 289 289 289 289 288 287 286
272 271 269 270 272 272 273 276 279 279 279 279 283 283 281 281 281 281 280 281 281 281 280 280 279 280 280 280 279 279 280 281 282 283 284 286 288 289 289 289 288 288 288 287
268 270 271 270 270 271 273 275 277 279 282 283 285 287 285 283 283 283 282 281 281 281 281 280 279 279 281 282 282 281 281 281 282 283 285 285 286 288 288 289 288 288 289 289
270 269 270 271 271 271 272 273 276 279 281 282 283 285 285 285 284 284 284 283 282 282 281 281 281 281 283 284 284 284 284 282 282 283 284 285 285 286 286 287 288 288 288 289
269 270 271 272 272 273 272 274 276 278 279 280 282 284 284 285 285 285 284 285 285 283 283 282 283 283 284 284 284 285 285 283 282 282 283 284 285 286 286 287 288 288 288 289
269 270 269 271 272 273 273 273 276 278 279 280 282 283 282 283 283 284 285 285 285 285 285 285 285 286 286 286 286 286 287 286 284 283 283 284 286 286 286 288 289 290 289 288
268 268 267 268 271 273 273 274 276 277 279 282 282 280 280 281 282 284 284 285 284 284 285 286 287 287 287 287 287 287 288 287 286 285 285 285 286 287 287 288 289 290 290 289
267 268 269 269 269 270 271 273 277 278 279 280 280 281 280 280 281 282 284 284 285 285 285 286 287 288 288 288 288 289 289 289 288 287 287 287 287 287 288 288 289 290 290 290
Height
5828 5830 5830 5832 5833 5834 5835 5836 5836 5836 5836 5836 5836 5836 5836 5837 5837 5837 5838 5838 5838 5839 5839 5840 5840 5840 5841 5841 5841 5841 5841 5841 5841 5841 5841 5840 5839 5839 5838 5837 5835 5834 5834 5833
5827 5828 5829 5830 5831 5832 5833 5833 5834 5834 5834 5834 5834 5834 5834 5834 5834 5835 5835 5835 5835 5836 5836 5837 5837 5838 5838 5838 5838 5838 5838 5838 5838 5838 5837 5837 5836 5835 5834 5833 5832 5831 5830 5829
5825 5827 5827 5828 5829 5830 5830 5831 5831 5831 5832 5831 5832 5832 5831 5832 5832 5832 5832 5832 5832 5833 5833 5834 5834 5835 5835 5835 5835 5835 5835 5835 5835 5834 5834 5833 5832 5831 5830 5829 5828 5827 5825 5824
5822 5824 5824 5825 5826 5826 5827 5828 5828 5828 5829 5828 5829 5829 5829 5828 5829 5829 5829 5829 5829 5829 5830 5830 5831 5831 5832 5832 5832 5832 5832 5832 5831 5831 5830 5829 5828 5827 5826 5824 5823 5822 5821 5820
5819 5821 5822 5822 5823 5824 5825 5825 5825 5826 5825 5826 5826 5826 5826 5825 5825 5826 5826 5826 5826 5826 5826 5827 5827 5828 5828 5828 5828 5828 5828 5828 5828 5827 5826 5825 5824 5822 5821 5820 5818 5817 5816 5814
5817 5817 5819 5820 5820 5821 5822 5822 5822 5822 5822 5823 5824 5824 5823 5822 5823 5822 5822 5822 5822 5822 5822 5823 5823 5824 5824 5825 5825 5824 5824 5824 5823 5823 5822 5821 5819 5818 5816 5815 5814 5812 5811 5809
5814 5814 5815 5816 5817 5818 5819 5819 5819 5819 5819 5820 5821 5820 5820 5819 5819 5819 5818 5818 5818 5818 5818 5818 5819 5820 5820 5820 5821 5820 5820 5820 5819 5818 5817 5816 5815 5813 5811 5810 5809 5807 5806 5804
5811 5811 5811 5812 5813 5814 5815 5815 5816 5817 5817 5817 5817 5816 5817 5816 5815 5815 5814 5814 5814 5814 5814 5814 5814 5815 5815 5816 5816 5816 5816 5815 5815 5814 5813 5811 5810 5808 5807 5805 5803 5802 5800 5799
5807 5808 5808 5809 5809 5810 5810 5811 5812 5813 5813 5813 5813 5812 5811 5811 5811 5811 5810 5810 5809 5809 5809 5810 5810 5810 5810 5811 5811 5811 5811 5810 5810 5809 5808 5806 5804 5803 5801 5800 5798 5796 5795 5793
5803 5804 5804 5805 5805 5806 5807 5807 5808 5808 5808 5809 5809 5808 5807 5806 5807 5807 5806 5806 5805 5805 5805 5805 5805 5805 5806 5806 5806 5806 5806 5805 5805 5804 5803 5801 5799 5797 5796 5794 5792 5791 5789 5787
5799 5799 5800 5800 5801 5801 5802 5803 5803 5803 5804 5804 5804 5805 5802 5802 5802 5802 5801 5801 5800 5800 5800 5800 5800 5800 5800 5800 5800 5800 5800 5800 5799 5798 5797 5796 5794 5792 5790 5788 5787 5785 5783 5780
5795 5795 5795 5796 5796 5796 5797 5797 5798 5799 5799 5799 5798 5800 5797 5797 5797 5796 5795 5795 5794 5794 5794 5794 5794 5794 5794 5795 5795 5794 5794 5794 5793 5792 5791 5790 5788 5786 5784 5782 5780 5779 5777 5774
5790 5791 5791 5791 5793 5792 5792 5793 5793 5794 5794 5794 5793 5795 5791 5791 5791 5790 5789 5789 5789 5788 5788 5788 5788 5789 5789 5789 5789 5788 5788 5787 5787 5786 5785 5783 5781 5779 5777 5775 5774 5772 5770 5768
5785 5786 5787 5787 5786 5786 5786 5787 5788 5789 5788 5788 5788 5787 5787 5786 5786 5785 5784 5783 5783 5782 5782 5782 5782 5783 5782 5782 5782 5782 5781 5781 5780 5779 5777 5776 5774 5772 5770 5768 5766 5764 5762 5760
5781 5781 5781 5781 5781 5781 5781 5782 5782 5783 5783 5783 5783 5781 5781 5780 5780 5778 5778 5777 5776 5776 5776 5776 5776 5776 5775 5775 5775 5775 5774 5773 5772 5771 5770 5768 5766 5765 5762 5760 5758 5756 5754 5752
5775 5775 5775 5775 5776 5776 5777 5776 5776 5777 5777 5776 5776 5775 5775 5773 5772 5771 5770 5770 5770 5769 5769 5769 5768 5768 5768 5768 5768 5767 5767 5766 5765 5763 5762 5760 5758 5756 5754 5752 5750 5748 5746 5744
5769 5770 5769 5769 5770 5770 5771 5771 5770 5770 5770 5770 5769 5769 5767 5767 5766 5765 5764 5763 5762 5762 5762 5761 5761 5760 5760 5760 5760 5759 5758 5757 5756 5755 5754 5752 5750 5748 5746 5743 5741 5739 5737 5735
5764 5763 5763 5763 5764 5764 5768 5766 5765 5764 5764 5764 5762 5762 5761 5760 5759 5758 5757 5756 5755 5755 5754 5754 5753 5752 5752 5752 5751 5751 5750 5748 5747 5746 5745 5743 5740 5738 5736 5734 5732 5730 5728 5726
5758 5758 5757 5758 5757 5758 5760 5759 5758 5758 5758 5757 5756 5755 5754 5753 5752 5751 5751 5750 5749 5747 5747 5746 5745 5744 5743 5743 5742 5741 5741 5739 5738 5737 5735 5733 5731 5729 5727 5724 5722 5720 5718 5716
5752 5752 5752 5752 5751 5752 5754 5753 5752 5752 5751 5751 5749 5748 5747 5746 5745 5745 5744 5742 5741 5740 5739 5738 5737 5736 5735 5734 5733 5733 5732 5730 5729 5727 5725 5724 5721 5719 5717 5715 5712 5710 5708 5706
5746 5745 5745 5745 5745 5745 5747 5747 5746 5746 5745 5744 5743 5741 5740 5739 5738 5737 5736 5735 5733 5732 5731 5730 5729 5728 5727 5726 5725 5724 5722 5721 5719 5717 5715 5714 5712 5709 5707 5704 5702 5700 5698 5696
5739 5739 5739 5739 5739 5741 5740 5740 5740 5739 5737 5736 5735 5734 5733 5731 5730 5729 5728 5727 5726 5724 5723 5722 5721 5720 5719 5717 5716 5714 5713 5711 5710 5708 5706 5704 5702 5699 5697 5695 5692 5690 5688 5686
5732 5733 5732 5733 5734 5733 5733 5733 5732 5731 5730 5729 5728 5727 5725 5724 5723 5722 5720 5719 5718 5717 5715 5714 5713 5711 5710 5708 5707 5705 5703 5701 5699 5697 5695 5693 5691 5689 5687 5685 5682 5680 5678 5676
5725 5725 5725 5725 5725 5725 5725 5725 5724 5723 5722 5721 5720 5719 5718 5717 5715 5714 5713 5711 5710 5708 5707 5705 5704 5702 5701 5699 5697 5695 5693 5691 5689 5687 5685 5683 5681 5679 5677 5674 5672 5670 5667 5665
5717 5717 5717 5718 5718 5717 5716 5716 5716 5716 5715 5713 5712 5711 5709 5708 5707 5706 5705 5703 5702 5700 5698 5696 5695 5693 5691 5689 5687 5685 5683 5681 5679 5677 5674 5673 5671 5669 5666 5664 5662 5659 5656 5654
5710 5709 5709 5710 5710 5708 5708 5708 5707 5707 5706 5705 5704 5703 5701 5699 5698 5697 5696 5694 5693 5691 5689 5687 5685 5683 5681 5679 5677 5675 5673 5670 5668 5666 5664 5662 5660 5657 5655 5653 5652 5649 5646 5643